Hourly Data Report for December 06, 2003

SHERBROOKE A
QUEBEC

45°26'00.000" N
71°41'00.000" W
241.40 m
7028124
71610
YSC

Download Data

Hourly Data (December 2003)
Hourly Data Report for December 6, 2003
TIME
LST
Temp Definition
°C
Dew Point Definition
°C
Rel Hum Definition
%
Precip. Amount Definition
mm

Wind Dir Definition
10's deg

Wind Spd Definition
km/h
Visibility Definition
km
Stn Press Definition
kPa
Hmdx Definition


Wind Chill Definition


Weather Definition


00:00 -17.1 -20.3 76   7 9 15.0 99.71   -23  
01:00 -17.1 -20.2 77   4 13 15.0 99.65   -25  
02:00 -17.1 -20.4 75   6 11 15.0 99.67   -24  
03:00 -16.1 -19.3 76   9 11 15.0 99.64   -23  
04:00 -15.4 -18.6 76   6 9 15.0 99.65   -21  
05:00 -15.0 -18.4 75   7 9 15.0 99.59   -21  
06:00 -14.6 -18.0 75   4 13 15.0 99.55   -22  
07:00 -14.6 -18.3 73   5 13 15.0 99.56   -22  
08:00 -14.4 -18.3 72   5 17 24.1 99.60   -23 Mostly Cloudy
09:00 -13.6 -17.8 71   5 20 24.1 99.61   -22 Mostly Cloudy
10:00 -12.6 -16.9 70   4 9 24.1 99.63   -18 Mostly Cloudy
11:00 -12.1 -16.8 68   5 17 24.1 99.57   -20 Mostly Cloudy
12:00 -11.2 -15.7 69   3 19 24.1 99.45   -19 Cloudy
13:00 -10.7 -15.0 71   4 20 24.1 99.38   -19 Snow
14:00 -10.6 -13.7 78   3 15 0.8 99.31   -17 Moderate Snow
15:00 -10.1 -13.2 78   3 17 0.8 99.24   -17 Moderate Snow
16:00 -9.7 -12.8 78   3 19 12.9 99.22   -17 Snow
17:00 -9.1 -12.4 77   3 22 19.3 99.22   -17 Snow
18:00 -9.0 -11.3 83   3 19 1.0 99.21   -16 Snow
19:00 -8.8 -10.7 86   3 15 0.3 99.16   -15 Snow
20:00 -8.8 -11.0 84   3 20 0.6 99.09   -16 Snow
21:00 -9.2 -12.0 80   3 24 1.4 99.03   -18 Snow
22:00 -9.6 -12.3 81   3 19 1.6 98.92   -17 Snow
23:00 -9.4 -11.8 83   4 17 0.8 98.85   -16 Snow

Notes on Data Quality.

Legend

  • E = Estimated
  • M = Missing
  • NA = Not Available*
  • [empty] = Indicates an unobserved value
Date modified: